User: anonymous   Login
Location: Meriden
(44.0740°N, 93.3870°W)
Time: 13:13:32
(UTC-05:00)
Language:

AO-27 - Orbit

View from above orbital plane
View from above orbital plane
View from above satellite
View from above satellite

Ground track
Ground track

The orbit data is extracted from the following two-line orbital elements,

1 22825U 93061C   14298.07854287  .00000394  00000-0  17083-3 0  8046
2 22825 098.6773 243.5501 0007306 276.9231 141.9036 14.29766381 99343
Epoch (UTC): 25 October 2014 01:53:06
Eccentricity: 0.0007306
inclination: 98.6773°
perigee height: 787 km
apogee height: 798 km
right ascension of ascending node: 243.5501°
argument of perigee: 276.9231°
revolutions per day: 14.29766381
mean anomaly at epoch: 141.9036°
orbit number at epoch: 9934

The dashed part of the orbit path shows where the satellite is in the earth's shadow,  

DLR